Temp
71 70 69 68 65 64 64 66 69 71 73 76 76 79 77 76 74 72 71 73 75 78 78 72 76 78 75 72 73 74 75 65 65 70 67 65 64 55 53 51 51 50 49 49 49 49 49 50 51 52 54 54 53 52 52 51 51 51 52 52 52 51 51 52 52 52 53 53 52 51 51 51 51 50
70 69 70 70 70 68 65 64 66 68 69 70 72 77 80 78 75 74 73 73 77 77 76 75 75 78 73 71 69 71 70 61 68 71 69 66 63 51 51 50 50 50 49 49 49 49 49 50 51 53 53 52 51 51 50 50 50 51 51 51 51 51 51 51 52 52 52 51 51 50 50 50 50 50
70 70 70 71 69 70 68 66 65 65 65 66 69 69 78 78 76 75 75 72 77 79 74 77 78 73 72 71 68 68 70 65 69 69 67 66 53 54 53 50 50 50 50 49 49 49 49 49 50 51 51 51 50 50 50 50 49 49 49 50 51 51 51 51 51 51 51 51 51 50 50 50 50 50
71 71 70 70 69 70 70 69 68 66 65 66 65 67 70 78 78 77 75 73 74 78 78 77 76 74 70 71 67 66 67 66 62 68 65 59 55 62 58 50 49 49 49 49 49 49 49 48 48 49 50 50 49 49 49 48 48 48 48 49 49 50 50 50 49 50 50 50 50 49 49 49 49 49
73 72 72 71 71 72 70 69 69 69 69 66 65 66 67 73 78 77 74 72 74 77 79 78 75 74 71 69 70 66 63 63 66 63 62 61 63 63 61 57 49 48 48 48 48 48 48 48 48 48 48 47 47 47 48 47 47 47 47 46 47 48 48 49 49 49 49 49 49 48 49 48 48 49
73 72 71 72 73 73 69 72 71 70 70 68 65 64 65 70 77 78 76 75 75 71 73 75 75 73 72 68 69 62 61 63 63 62 62 64 66 64 62 60 55 47 48 47 47 47 47 47 46 46 46 46 47 47 47 46 46 46 46 46 46 46 46 47 47 47 48 48 48 48 48 48 48 49
74 73 72 71 72 71 71 71 70 70 69 69 66 65 65 67 73 75 78 77 75 69 68 71 70 69 70 68 67 66 65 65 63 61 62 65 65 64 63 60 57 47 47 46 47 47 46 46 46 46 46 46 45 45 45 45 45 44 44 45 45 45 45 45 45 46 46 47 47 47 47 47 48 49
71 72 72 72 72 71 69 70 70 72 71 69 67 65 65 67 71 72 75 76 77 72 67 70 70 70 69 70 70 67 66 63 63 63 63 65 65 65 63 60 57 49 46 46 47 47 46 46 46 46 46 46 45 45 45 45 45 44 44 44 44 44 44 44 44 44 45 46 46 46 46 47 48 49
69 71 72 72 74 72 70 68 65 68 68 70 69 68 67 66 72 74 75 75 77 71 69 68 71 69 70 70 67 66 63 62 63 64 62 61 61 60 60 58 54 47 46 47 47 47 46 46 46 46 46 45 45 45 45 45 45 45 45 45 45 44 44 44 44 44 44 44 44 45 46 46 47 49
69 70 72 72 73 73 71 68 68 67 69 71 71 69 66 67 72 73 75 73 74 73 69 68 66 68 66 65 65 66 64 60 59 59 60 60 60 58 55 55 54 55 54 52 50 47 47 47 46 46 46 46 45 45 45 45 45 45 44 44 45 45 44 44 44 44 43 43 43 43 44 46 47 48
68 70 71 71 72 72 73 71 70 68 66 68 71 69 67 67 70 72 72 74 73 73 67 68 68 67 66 64 62 66 65 63 62 59 57 56 58 57 55 52 55 55 54 52 49 51 51 49 51 46 46 46 46 46 45 45 45 44 44 44 44 44 44 44 44 44 44 43 43 43 43 44 45 46
66 68 70 72 73 73 73 72 72 69 67 72 71 69 67 66 69 70 70 72 75 73 69 69 68 68 65 64 65 66 64 61 61 61 58 54 54 55 56 55 54 55 54 52 52 50 50 49 47 45 46 46 45 45 45 45 45 44 44 44 44 44 44 44 44 44 44 44 44 43 43 43 43 44
66 68 70 72 73 71 65 61 62 63 61 68 70 69 68 65 67 69 67 64 72 71 69 68 68 67 65 64 61 60 60 59 59 60 59 56 55 54 53 55 57 55 54 54 54 53 53 53 51 52 53 51 48 48 48 48 44 44 44 44 44 44 44 44 44 44 44 43 43 43 43 43 42 42
66 67 70 69 62 59 58 55 53 53 54 55 65 71 68 65 65 67 66 64 67 69 69 68 67 65 63 63 61 60 61 63 64 61 59 56 56 55 53 53 54 56 56 55 53 54 55 55 54 56 57 55 52 56 54 55 51 45 44 43 44 44 44 44 43 43 43 43 43 43 42 42 42 42
65 67 70 71 66 62 59 60 50 51 51 52 52 54 58 59 63 63 66 68 69 68 68 67 66 66 63 63 63 62 63 63 62 61 60 59 56 54 50 48 51 57 57 54 53 52 56 58 56 58 61 58 57 59 56 43 44 44 44 43 44 43 43 43 43 43 43 43 42 42 42 42 42 42
65 67 68 70 71 71 71 73 67 56 50 49 49 50 51 51 53 55 64 68 70 69 68 66 67 66 64 62 63 63 63 62 62 61 60 59 57 55 54 53 50 55 57 54 53 52 54 56 58 59 62 61 60 58 46 43 43 44 44 44 43 43 43 43 43 42 42 42 42 42 42 42 41 41
64 66 67 69 70 71 60 65 73 72 65 50 47 49 51 51 50 49 51 54 67 71 70 66 65 66 65 61 60 63 63 63 60 60 61 59 58 58 57 57 55 53 56 54 52 52 54 56 57 59 60 61 58 51 45 43 44 43 44 43 43 42 43 42 42 42 42 42 42 41 41 41 41 40
62 66 67 68 69 71 70 71 72 73 71 67 61 59 58 60 55 48 47 48 50 57 68 66 66 66 65 61 61 61 61 61 59 59 59 58 56 56 56 55 51 51 54 53 53 54 55 57 59 58 60 61 58 58 47 43 43 44 42 43 42 42 42 42 42 42 42 41 42 41 41 41 40 40
58 64 67 68 69 71 70 71 70 72 72 68 64 62 60 61 61 61 60 60 61 64 68 70 71 67 65 64 60 60 61 61 62 61 57 54 51 49 49 48 49 50 54 56 56 52 58 59 59 60 61 60 59 55 45 44 44 43 43 42 43 42 42 42 42 41 42 42 41 41 41 40 40 40
60 61 64 67 69 70 70 63 53 59 70 69 65 62 59 57 53 48 44 46 50 59 64 66 65 62 58 52 56 56 53 52 55 54 53 52 51 49 49 46 47 47 53 56 57 57 59 59 59 61 61 60 58 56 54 42 44 43 43 42 42 42 42 41 42 42 41 41 41 41 41 41 40 40
59 60 64 66 69 70 70 59 49 50 56 69 65 62 58 55 51 48 47 41 41 40 41 41 41 42 42 44 45 45 46 50 54 57 54 50 51 50 49 48 48 49 52 55 59 61 59 58 60 59 59 59 58 57 56 52 44 43 43 42 42 43 42 42 42 42 42 41 42 42 41 41 41 40
58 60 55 60 67 69 70 50 46 46 57 66 65 60 55 51 48 47 48 47 42 40 40 40 40 41 41 42 43 44 44 45 50 56 53 49 48 48 50 49 51 53 54 56 60 58 60 58 60 59 59 57 58 58 59 56 51 43 43 42 42 42 42 43 42 43 42 41 42 43 41 41 41 49
56 59 58 54 58 64 62 43 46 45 58 67 63 60 56 53 49 47 49 45 44 44 45 47 46 44 44 45 46 46 43 45 49 56 53 51 49 47 48 50 53 52 54 57 59 57 59 57 59 60 55 53 57 59 58 56 57 57 57 53 49 43 42 43 43 43 42 42 42 42 42 41 42 51
56 58 62 59 49 48 45 42 44 45 51 65 62 60 58 56 52 50 49 46 44 44 45 45 45 46 47 47 47 48 50 52 54 53 54 54 54 53 53 54 55 56 56 54 57 59 60 60 58 60 59 55 51 55 57 57 57 58 58 58 60 45 41 44 44 41 42 43 41 41 41 42 42 51
57 59 62 63 52 46 42 43 42 45 47 51 62 60 59 58 50 47 46 44 42 44 44 44 44 44 46 47 48 49 52 54 55 54 52 55 58 58 57 58 59 58 55 55 50 59 56 59 58 58 59 59 59 55 56 58 58 58 57 57 57 59 58 58 55 58 46 41 41 41 41 42 43 46
58 59 60 60 49 40 41 42 42 43 45 46 60 60 47 42 41 45 44 44 44 43 44 44 43 44 46 47 47 49 51 53 53 55 54 53 55 59 64 63 58 53 50 50 43 57 59 57 58 57 58 58 57 58 55 55 57 58 58 58 58 57 57 57 58 58 58 58 57 52 52 45 44 41
55 58 59 57 41 40 40 41 41 43 42 47 54 40 39 40 40 41 42 41 43 44 45 45 43 42 43 43 46 47 46 47 48 51 52 53 55 55 56 59 60 57 55 54 56 59 60 58 57 58 57 58 56 56 55 56 56 58 58 59 57 57 58 58 57 56 57 57 56 48 45 44 40 40
57 57 59 52 39 40 40 40 41 41 44 47 38 40 39 39 41 43 41 42 43 43 45 45 44 43 42 42 45 46 47 47 48 50 53 54 54 53 53 54 55 57 57 58 59 59 59 56 55 55 56 57 56 55 55 58 56 57 55 56 57 57 58 56 57 55 55 56 56 56 55 55 56 55
56 50 43 38 39 39 39 39 40 40 39 38 39 38 39 41 45 43 42 42 43 44 43 43 44 42 43 45 43 46 48 48 48 49 50 50 50 50 51 52 51 52 54 56 58 58 57 57 55 55 55 57 56 55 55 55 56 56 53 51 54 57 56 56 55 56 54 55 55 54 54 55 55 54
37 37 38 38 37 38 39 42 43 41 40 38 38 39 41 45 42 43 43 42 42 42 42 40 41 41 41 42 44 45 49 49 48 48 47 47 47 49 50 51 51 52 53 55 57 57 57 55 55 55 56 55 56 54 54 54 52 54 52 53 54 53 55 56 56 56 53 53 53 53 55 56 55 53
40 39 41 41 40 40 39 40 39 39 38 38 40 41 42 43 44 42 42 41 41 41 42 39 38 39 41 45 46 48 49 48 49 49 47 49 49 51 53 51 47 48 50 52 53 54 56 54 54 53 54 54 53 53 52 53 53 54 54 54 52 47 52 55 54 53 54 52 52 54 55 56 56 53
41 40 37 38 40 39 39 39 39 39 39 39 40 41 40 40 40 40 40 41 40 40 39 36 37 38 41 42 47 48 49 49 49 51 49 49 50 51 52 49 46 48 49 51 52 51 48 53 54 54 52 51 49 50 51 52 53 53 53 53 52 54 53 53 53 53 53 52 52 53 54 54 54 55
40 40 40 38 38 39 37 37 37 37 38 39 39 40 39 39 39 39 41 40 38 37 36 36 36 39 41 43 47 47 47 47 48 50 50 51 51 52 53 49 49 49 48 48 49 50 52 52 50 52 53 51 51 51 51 49 52 53 52 52 52 51 54 54 52 50 51 50 49 50 52 53 54 54
39 39 38 39 38 38 38 37 37 37 37 38 38 37 37 39 39 39 38 37 36 38 37 38 39 39 42 43 45 45 44 45 47 48 46 50 52 50 49 48 49 50 49 49 50 50 51 52 53 52 52 49 51 51 51 50 51 53 53 53 52 51 52 51 52 50 50 50 49 47 48 50 53 55
40 39 39 38 38 38 38 38 38 38 37 37 37 37 38 39 38 37 36 37 38 38 39 39 40 40 42 42 42 41 42 43 46 48 49 51 51 49 47 47 47 49 50 49 49 51 52 51 52 50 50 51 49 49 46 48 49 50 51 51 51 51 49 50 49 49 49 50 50 45 46 48 50 53
41 41 40 39 38 37 38 38 37 37 37 38 38 38 38 38 38 37 37 37 37 39 39 39 40 42 42 42 42 41 41 42 45 47 47 48 47 48 48 48 47 49 51 50 50 52 52 52 52 50 47 47 47 45 43 42 44 48 46 45 49 49 48 48 48 49 49 49 49 47 44 43 46 49
40 39 38 37 37 38 37 37 37 37 37 37 38 39 37 36 36 36 36 37 37 38 39 40 40 41 41 41 41 41 42 44 45 46 46 46 47 47 46 46 46 50 50 50 51 51 52 52 52 51 50 48 47 46 44 44 41 43 48 44 45 47 46 46 46 46 49 49 48 48 45 44 44 48
39 38 37 36 37 37 37 37 36 36 37 37 37 36 35 35 35 35 36 36 38 39 39 40 39 39 40 40 41 42 44 45 45 44 44 46 47 46 46 45 46 47 49 49 50 51 52 51 51 50 50 48 48 46 43 45 44 41 42 45 43 43 45 44 44 44 45 49 47 48 48 45 45 47
38 38 37 36 36 36 36 37 37 37 36 37 36 35 35 34 35 37 39 39 39 39 40 39 40 40 40 41 42 43 44 44 44 45 46 47 47 45 45 45 45 47 46 46 49 51 51 50 49 49 49 46 45 44 45 45 45 46 41 39 43 42 43 44 43 44 44 44 45 48 47 49 50 44
36 37 36 35 35 36 37 38 38 36 36 35 35 35 36 36 37 38 39 39 39 39 40 39 39 40 41 42 42 44 44 43 44 45 44 45 44 45 45 45 45 46 46 46 46 48 49 47 46 46 46 45 44 46 47 47 47 48 45 40 38 41 42 42 41 41 42 45 45 44 43 45 44 47
35 35 35 36 36 37 37 37 37 36 35 34 34 36 36 36 37 38 38 39 38 39 39 40 40 40 40 41 42 43 42 43 43 43 43 43 43 43 42 40 45 46 46 44 45 44 45 45 39 30 38 45 44 44 42 43 43 45 46 44 38 37 38 39 42 41 40 43 44 42 41 41 40 42
34 34 35 36 35 35 35 34 35 35 35 36 36 36 37 38 37 37 37 37 38 38 39 40 40 40 41 42 42 42 41 41 41 41 41 41 40 40 41 43 45 46 46 45 44 44 45 46 40 40 43 44 47 45 44 42 42 44 43 45 43 38 36 37 37 38 43 42 41 40 39 40 41 39
34 34 34 34 35 35 34 34 34 35 35 36 36 37 37 37 38 38 39 39 39 39 40 40 41 42 42 42 43 42 41 40 40 41 41 41 41 42 43 44 44 45 44 45 45 44 44 45 47 46 48 48 45 45 42 40 42 43 43 44 44 46 44 38 38 37 37 36 37 40 42 39 37 34
34 34 34 34 35 35 35 34 35 35 36 36 36 37 37 38 38 38 39 39 39 40 40 40 41 41 41 42 42 42 42 41 41 40 41 42 42 43 42 42 43 44 45 44 44 44 46 46 46 47 46 44 44 44 40 40 43 42 43 41 42 42 44 46 43 39 36 36 36 36 36 37 37 37
34 34 34 35 35 35 35 35 35 35 36 36 37 37 38 38 38 38 38 38 39 39 39 39 40 41 41 42 42 40 41 40 42 42 43 42 42 41 41 42 43 43 44 44 44 43 45 45 46 47 45 44 43 42 41 40 40 41 41 39 39 42 44 44 43 44 46 46 39 35 35 35 35 35
MSLP
1014.70 1014.98 1015.34 1015.54 1015.78 1016.18 1016.18 1016.22 1016.10 1015.86 1015.70 1015.42 1015.22 1015.02 1015.38 1015.54 1015.74 1016.10 1016.62 1016.26 1016.18 1016.14 1016.62 1017.90 1017.98 1017.98 1018.70 1019.10 1019.18 1019.34 1019.46 1020.50 1020.86 1020.90 1021.30 1021.74 1022.18 1022.70 1022.78 1023.06 1023.38 1023.66 1023.90 1024.10 1024.30 1024.50 1024.66 1024.86 1025.14 1025.42 1025.70 1025.90 1026.14 1026.34 1026.54 1026.70 1026.78 1026.90 1026.94 1026.98 1027.10 1027.18 1027.22 1027.26 1027.22 1027.14 1027.06 1026.98 1026.94 1026.90 1026.82 1026.74 1026.66 1026.54
1014.30 1014.46 1014.66 1014.86 1015.14 1015.42 1015.70 1015.62 1015.66 1015.74 1015.58 1015.58 1015.34 1014.90 1014.54 1014.78 1015.34 1015.26 1015.62 1015.74 1015.50 1015.66 1016.26 1017.02 1017.78 1017.98 1018.78 1019.26 1019.58 1019.62 1019.90 1020.54 1020.70 1020.90 1021.30 1021.58 1022.14 1022.78 1023.02 1023.26 1023.54 1023.78 1024.02 1024.26 1024.46 1024.66 1024.82 1024.98 1025.18 1025.46 1025.70 1025.94 1026.18 1026.38 1026.58 1026.74 1026.86 1026.90 1026.98 1027.06 1027.14 1027.22 1027.26 1027.26 1027.26 1027.22 1027.14 1027.06 1026.98 1026.94 1026.86 1026.74 1026.62 1026.50
1013.74 1013.90 1014.06 1014.18 1014.46 1014.50 1014.82 1014.98 1015.22 1015.38 1015.46 1015.42 1015.38 1015.74 1014.54 1014.22 1014.50 1014.82 1014.90 1015.34 1014.62 1014.78 1016.06 1016.18 1016.66 1018.14 1018.66 1018.90 1019.34 1019.70 1019.98 1020.50 1020.62 1020.94 1021.38 1021.78 1022.46 1022.78 1023.30 1023.50 1023.70 1023.94 1024.18 1024.38 1024.58 1024.78 1024.94 1025.14 1025.38 1025.58 1025.82 1026.06 1026.22 1026.42 1026.62 1026.74 1026.90 1026.94 1027.06 1027.14 1027.18 1027.22 1027.26 1027.30 1027.30 1027.26 1027.18 1027.14 1027.02 1026.94 1026.86 1026.74 1026.62 1026.46
1013.06 1013.18 1013.42 1013.50 1013.54 1013.78 1014.02 1014.26 1014.54 1014.86 1015.02 1015.10 1015.22 1015.30 1015.22 1014.06 1013.98 1014.22 1014.58 1015.06 1014.74 1014.34 1015.02 1015.74 1016.50 1017.30 1018.10 1018.58 1019.14 1019.70 1020.10 1020.58 1020.74 1021.02 1021.50 1022.30 1022.62 1022.82 1023.38 1023.82 1023.86 1024.02 1024.22 1024.42 1024.70 1024.86 1025.06 1025.30 1025.50 1025.74 1025.90 1026.14 1026.30 1026.50 1026.66 1026.82 1026.90 1026.98 1027.10 1027.18 1027.18 1027.22 1027.30 1027.34 1027.34 1027.30 1027.22 1027.14 1027.06 1026.94 1026.82 1026.74 1026.58 1026.42
1012.50 1012.58 1012.78 1012.90 1012.90 1013.02 1013.18 1013.26 1013.74 1014.14 1014.34 1014.66 1014.86 1014.94 1014.98 1014.22 1013.78 1013.98 1014.58 1014.98 1014.70 1014.46 1014.50 1014.94 1016.06 1016.82 1017.62 1018.50 1018.74 1019.38 1020.06 1020.58 1020.86 1021.34 1021.86 1022.22 1022.42 1022.70 1023.18 1023.78 1024.14 1024.18 1024.30 1024.54 1024.74 1024.90 1025.14 1025.42 1025.66 1025.82 1026.02 1026.18 1026.38 1026.54 1026.70 1026.82 1026.94 1027.02 1027.14 1027.22 1027.26 1027.30 1027.34 1027.34 1027.38 1027.34 1027.26 1027.10 1027.02 1026.90 1026.78 1026.66 1026.54 1026.34
1011.90 1011.94 1012.18 1012.18 1012.26 1012.46 1012.90 1012.62 1012.94 1013.30 1013.66 1014.06 1014.42 1014.62 1014.86 1014.42 1013.58 1013.38 1014.02 1014.30 1014.30 1015.22 1015.30 1015.46 1016.02 1016.82 1017.18 1018.02 1018.62 1019.26 1019.90 1020.38 1020.78 1021.42 1021.86 1022.14 1022.30 1022.58 1023.02 1023.54 1024.14 1024.34 1024.42 1024.62 1024.82 1024.98 1025.22 1025.50 1025.74 1025.94 1026.10 1026.26 1026.42 1026.58 1026.74 1026.86 1026.94 1027.02 1027.10 1027.18 1027.26 1027.34 1027.38 1027.38 1027.38 1027.34 1027.22 1027.10 1026.94 1026.82 1026.74 1026.62 1026.46 1026.26
1011.54 1011.50 1011.50 1011.58 1011.70 1011.94 1012.10 1012.30 1012.38 1012.62 1013.02 1013.38 1013.90 1014.18 1014.42 1014.38 1013.70 1013.46 1013.30 1013.66 1014.02 1015.26 1015.82 1015.86 1016.34 1016.70 1017.10 1017.50 1018.34 1019.14 1019.66 1020.10 1020.62 1021.18 1021.66 1021.86 1022.18 1022.50 1022.86 1023.34 1023.98 1024.46 1024.50 1024.74 1024.86 1025.02 1025.30 1025.58 1025.82 1025.98 1026.14 1026.30 1026.42 1026.62 1026.74 1026.86 1026.90 1026.98 1027.10 1027.18 1027.26 1027.30 1027.34 1027.34 1027.34 1027.30 1027.22 1027.06 1026.90 1026.74 1026.62 1026.54 1026.38 1026.14
1011.30 1011.10 1011.06 1010.94 1011.18 1011.38 1011.70 1011.86 1012.10 1011.98 1012.22 1012.70 1013.22 1013.70 1013.94 1013.90 1013.54 1013.62 1013.42 1013.30 1013.22 1014.22 1015.38 1015.54 1015.94 1016.34 1016.94 1017.46 1017.98 1018.78 1019.54 1020.06 1020.58 1021.02 1021.50 1021.82 1022.06 1022.38 1022.82 1023.38 1023.90 1024.54 1024.66 1024.82 1024.90 1025.06 1025.34 1025.62 1025.86 1026.02 1026.14 1026.30 1026.42 1026.58 1026.70 1026.74 1026.86 1026.94 1027.06 1027.14 1027.18 1027.18 1027.26 1027.26 1027.26 1027.26 1027.18 1027.06 1026.86 1026.66 1026.54 1026.42 1026.26 1026.02
1011.06 1010.66 1010.58 1010.50 1010.42 1010.70 1011.02 1011.22 1011.82 1011.82 1011.70 1011.82 1012.34 1012.70 1013.02 1013.46 1012.74 1012.66 1012.74 1013.10 1013.06 1014.02 1014.78 1015.42 1015.54 1016.18 1016.58 1016.98 1017.78 1018.42 1019.14 1020.06 1020.50 1020.90 1021.38 1021.86 1022.22 1022.58 1022.94 1023.50 1024.22 1024.78 1024.94 1025.10 1025.14 1025.26 1025.46 1025.70 1025.90 1026.02 1026.22 1026.34 1026.46 1026.58 1026.62 1026.70 1026.78 1026.90 1026.98 1027.02 1027.06 1027.06 1027.10 1027.18 1027.18 1027.14 1027.10 1026.98 1026.82 1026.62 1026.46 1026.30 1026.14 1025.90
1010.62 1010.42 1010.18 1010.02 1010.02 1009.98 1010.14 1010.34 1010.66 1011.18 1011.18 1011.10 1011.34 1011.78 1012.26 1012.62 1012.26 1012.22 1012.34 1012.86 1012.90 1013.38 1014.50 1014.90 1015.54 1015.98 1016.34 1017.14 1017.86 1018.26 1018.78 1019.34 1020.22 1020.94 1021.54 1021.94 1022.30 1022.74 1023.26 1023.82 1024.22 1024.46 1024.74 1025.02 1025.34 1025.50 1025.62 1025.78 1025.90 1026.06 1026.22 1026.38 1026.46 1026.54 1026.58 1026.66 1026.74 1026.82 1026.90 1026.90 1026.90 1026.94 1027.02 1027.06 1027.06 1026.98 1026.94 1026.82 1026.70 1026.54 1026.38 1026.18 1026.02 1025.82
1010.34 1009.98 1009.74 1009.62 1009.54 1009.34 1009.26 1009.46 1009.74 1010.34 1010.82 1010.74 1010.50 1010.82 1011.50 1012.18 1012.06 1011.82 1012.10 1012.30 1012.38 1012.78 1014.18 1014.62 1014.70 1015.38 1016.18 1016.46 1017.38 1018.06 1018.46 1019.02 1019.34 1019.98 1020.94 1021.82 1022.30 1022.70 1023.02 1023.54 1023.90 1024.18 1024.50 1024.86 1025.02 1025.10 1025.26 1025.62 1025.74 1026.06 1026.18 1026.34 1026.38 1026.42 1026.50 1026.58 1026.70 1026.78 1026.74 1026.74 1026.78 1026.82 1026.90 1026.94 1026.94 1026.86 1026.78 1026.70 1026.54 1026.34 1026.22 1026.10 1025.94 1025.74
1009.90 1009.58 1009.30 1009.02 1008.82 1008.66 1008.54 1008.70 1008.90 1009.42 1009.98 1009.78 1010.06 1010.26 1010.86 1011.62 1011.78 1011.62 1011.86 1011.78 1011.74 1012.30 1013.54 1013.94 1014.50 1014.90 1015.70 1016.70 1017.18 1017.58 1018.14 1018.86 1019.50 1019.70 1020.06 1020.90 1021.74 1022.22 1022.74 1023.10 1023.42 1023.82 1024.22 1024.58 1024.94 1025.18 1025.42 1025.62 1025.86 1026.10 1026.22 1026.26 1026.26 1026.30 1026.38 1026.54 1026.62 1026.66 1026.62 1026.62 1026.70 1026.74 1026.82 1026.86 1026.78 1026.70 1026.62 1026.50 1026.34 1026.14 1026.02 1025.94 1025.82 1025.70
1009.26 1009.06 1008.74 1008.46 1008.22 1008.02 1008.02 1008.18 1008.46 1008.66 1009.22 1009.78 1009.74 1009.86 1010.42 1011.18 1011.34 1011.22 1011.58 1012.26 1011.78 1012.30 1013.10 1013.50 1013.86 1014.58 1015.38 1015.94 1016.58 1017.34 1017.82 1017.94 1018.10 1018.98 1019.70 1020.50 1021.30 1021.82 1022.46 1022.90 1023.22 1023.50 1023.82 1024.10 1024.42 1024.78 1024.94 1025.06 1025.34 1025.50 1025.58 1025.82 1026.02 1026.02 1025.98 1026.22 1026.46 1026.46 1026.46 1026.50 1026.54 1026.62 1026.70 1026.74 1026.66 1026.54 1026.42 1026.30 1026.10 1025.94 1025.82 1025.74 1025.66 1025.54
1008.62 1008.42 1008.18 1007.90 1007.86 1007.86 1007.86 1007.98 1008.18 1008.50 1008.82 1009.14 1009.10 1009.18 1009.82 1010.46 1010.94 1010.98 1011.22 1011.82 1011.82 1012.06 1012.58 1012.98 1013.46 1014.26 1014.82 1015.38 1015.98 1016.42 1016.66 1017.06 1017.74 1018.50 1019.10 1019.86 1020.66 1021.46 1022.22 1022.74 1023.02 1023.22 1023.34 1023.54 1023.98 1024.22 1024.46 1024.42 1024.66 1024.62 1024.42 1025.02 1025.34 1025.18 1025.46 1025.50 1025.86 1026.18 1026.26 1026.34 1026.38 1026.50 1026.62 1026.62 1026.50 1026.38 1026.22 1026.06 1025.86 1025.70 1025.62 1025.58 1025.46 1025.26
1008.02 1007.74 1007.58 1007.34 1007.34 1007.54 1007.54 1007.74 1007.94 1008.06 1008.46 1008.70 1009.10 1009.38 1009.38 1009.50 1010.18 1010.62 1010.70 1010.82 1010.98 1011.54 1011.98 1012.46 1012.98 1013.46 1014.22 1014.86 1015.30 1015.74 1016.22 1016.70 1016.98 1017.46 1018.02 1018.70 1019.70 1020.42 1021.30 1022.34 1023.02 1023.02 1022.94 1023.34 1023.50 1023.82 1023.98 1023.90 1023.82 1023.78 1023.50 1024.10 1024.54 1024.38 1024.78 1025.62 1025.82 1025.98 1026.10 1026.18 1026.22 1026.38 1026.46 1026.42 1026.34 1026.22 1026.02 1025.82 1025.62 1025.50 1025.42 1025.38 1025.22 1025.02
1007.50 1007.18 1006.98 1006.78 1006.62 1006.58 1006.62 1006.74 1007.30 1007.86 1008.10 1008.46 1008.74 1009.02 1009.42 1009.30 1009.46 1009.70 1009.86 1010.14 1010.34 1010.74 1011.50 1011.98 1012.30 1012.78 1013.46 1014.26 1014.82 1015.34 1015.86 1016.30 1016.90 1017.42 1017.74 1018.26 1018.86 1019.58 1020.18 1020.70 1021.50 1021.86 1022.42 1022.74 1022.98 1023.42 1023.78 1023.78 1023.34 1023.14 1023.06 1023.42 1023.82 1024.18 1024.98 1025.42 1025.66 1025.82 1025.94 1025.98 1026.10 1026.22 1026.30 1026.22 1026.14 1026.02 1025.82 1025.58 1025.38 1025.30 1025.22 1025.14 1024.94 1024.70
1006.94 1006.58 1006.42 1006.22 1006.02 1005.94 1006.22 1006.42 1006.38 1006.78 1007.50 1008.14 1008.54 1008.74 1008.70 1008.98 1009.14 1009.42 1009.74 1009.82 1009.90 1009.98 1010.54 1011.22 1011.86 1012.02 1012.74 1013.78 1014.30 1014.46 1014.78 1015.30 1015.94 1016.58 1017.10 1017.78 1018.38 1018.74 1019.18 1019.50 1020.62 1021.74 1022.14 1022.46 1022.66 1022.82 1023.22 1023.42 1023.10 1022.82 1022.90 1023.18 1023.78 1024.70 1025.06 1025.30 1025.50 1025.66 1025.74 1025.82 1025.94 1026.06 1026.06 1026.02 1025.94 1025.78 1025.58 1025.38 1025.22 1025.10 1025.02 1024.86 1024.66 1024.42
1006.62 1006.02 1005.78 1005.58 1005.46 1005.38 1005.58 1005.70 1005.78 1005.90 1006.50 1007.34 1008.22 1008.66 1008.94 1008.66 1008.82 1009.26 1009.74 1009.98 1010.10 1010.18 1010.26 1010.58 1011.14 1011.46 1011.78 1012.62 1013.22 1013.86 1014.58 1015.06 1015.54 1015.86 1016.34 1017.10 1017.82 1018.42 1018.98 1019.82 1020.82 1021.70 1022.06 1022.14 1022.30 1022.26 1022.54 1022.78 1022.46 1022.38 1022.54 1023.02 1023.50 1023.86 1024.70 1025.10 1025.30 1025.42 1025.54 1025.66 1025.78 1025.82 1025.82 1025.78 1025.70 1025.50 1025.34 1025.18 1025.02 1024.90 1024.78 1024.58 1024.38 1024.10
1006.74 1005.86 1005.30 1005.06 1004.82 1004.74 1004.90 1004.86 1005.06 1005.34 1005.82 1006.70 1007.42 1008.10 1008.66 1008.58 1008.78 1009.14 1009.46 1009.78 1010.14 1010.34 1010.22 1010.26 1010.38 1011.02 1011.58 1012.10 1013.02 1013.82 1014.38 1014.82 1015.10 1015.42 1016.30 1017.46 1018.74 1019.82 1020.54 1021.06 1021.54 1021.82 1021.98 1021.82 1021.74 1021.74 1021.62 1022.14 1021.98 1021.82 1022.14 1022.86 1023.18 1023.90 1024.74 1024.90 1025.06 1025.18 1025.34 1025.50 1025.58 1025.58 1025.54 1025.50 1025.38 1025.26 1025.14 1024.98 1024.86 1024.66 1024.50 1024.26 1024.02 1023.74
1006.18 1005.86 1005.14 1004.58 1004.38 1004.30 1004.30 1004.30 1004.74 1005.02 1005.38 1006.18 1006.90 1007.70 1008.42 1008.70 1009.22 1010.14 1010.66 1010.06 1010.10 1010.18 1010.30 1010.54 1010.86 1011.34 1011.94 1012.54 1013.10 1013.70 1014.46 1015.38 1015.90 1016.62 1017.54 1018.34 1019.02 1019.74 1020.26 1021.26 1021.70 1021.86 1021.86 1021.62 1021.38 1020.78 1020.74 1021.62 1021.54 1021.38 1022.02 1022.58 1022.70 1023.34 1023.94 1024.70 1024.82 1024.98 1025.10 1025.26 1025.30 1025.30 1025.26 1025.22 1025.06 1024.98 1024.86 1024.74 1024.58 1024.38 1024.14 1023.94 1023.70 1023.42
1005.62 1005.22 1004.58 1004.10 1003.86 1003.82 1003.82 1003.94 1004.46 1004.90 1005.22 1005.86 1006.54 1007.26 1008.42 1009.30 1009.74 1010.50 1010.94 1010.78 1010.62 1010.78 1011.10 1011.42 1011.70 1012.06 1012.50 1013.06 1013.66 1014.22 1014.74 1015.06 1015.46 1016.30 1017.42 1018.42 1018.62 1019.10 1019.66 1020.42 1020.94 1021.10 1021.38 1021.38 1020.86 1020.26 1020.46 1021.26 1021.10 1021.22 1021.98 1022.18 1022.26 1022.70 1023.22 1024.02 1024.50 1024.70 1024.82 1024.90 1024.90 1024.94 1024.94 1024.82 1024.74 1024.62 1024.50 1024.38 1024.22 1024.02 1023.86 1023.66 1023.42 1023.06
1005.02 1004.50 1004.30 1003.98 1003.58 1003.38 1003.34 1003.74 1004.30 1004.82 1005.14 1005.62 1006.14 1007.06 1008.38 1009.38 1010.02 1010.74 1011.02 1011.30 1011.78 1011.62 1011.94 1012.30 1012.62 1012.90 1013.26 1013.70 1014.18 1014.62 1014.98 1015.34 1015.34 1015.46 1016.38 1017.42 1018.10 1018.74 1018.86 1019.58 1019.74 1020.06 1020.66 1020.74 1020.62 1020.50 1020.02 1020.94 1020.98 1021.10 1021.62 1022.02 1022.14 1022.26 1022.50 1023.14 1023.82 1024.26 1024.38 1024.42 1024.38 1024.46 1024.50 1024.42 1024.30 1024.18 1024.02 1023.94 1023.78 1023.66 1023.58 1023.46 1023.26 1022.50
1004.46 1004.02 1003.66 1003.58 1003.38 1003.10 1003.10 1003.74 1004.14 1004.66 1004.82 1005.14 1005.70 1006.58 1007.78 1008.74 1009.62 1010.30 1010.66 1011.26 1011.58 1011.90 1012.26 1012.94 1013.30 1014.02 1014.26 1014.50 1014.82 1015.38 1015.62 1015.74 1015.86 1015.90 1016.38 1017.26 1017.62 1017.98 1018.42 1018.86 1019.18 1019.82 1019.94 1020.18 1020.58 1020.26 1020.02 1020.74 1020.82 1020.86 1021.46 1021.70 1021.70 1021.94 1022.30 1022.82 1022.86 1023.02 1023.06 1023.38 1023.78 1024.02 1024.06 1023.94 1023.74 1023.62 1023.54 1023.46 1023.42 1023.34 1023.30 1023.22 1023.06 1022.22
1003.62 1003.46 1002.98 1002.78 1003.06 1003.18 1003.50 1003.78 1004.06 1004.38 1004.54 1004.66 1005.30 1006.18 1006.98 1007.78 1009.10 1009.86 1010.38 1010.98 1011.06 1011.50 1012.14 1013.02 1013.42 1013.86 1014.42 1014.90 1015.30 1015.66 1015.82 1015.98 1016.10 1016.22 1016.58 1016.98 1017.14 1017.22 1017.54 1017.94 1018.14 1017.94 1018.66 1020.14 1020.50 1019.90 1019.94 1020.18 1020.46 1020.62 1020.38 1020.50 1021.18 1021.70 1022.06 1022.26 1022.50 1022.62 1022.70 1022.66 1022.50 1023.30 1023.42 1023.22 1023.02 1023.02 1022.98 1022.98 1022.98 1022.98 1022.98 1022.90 1022.82 1022.22
1002.74 1002.46 1002.18 1001.98 1002.34 1002.78 1003.42 1003.86 1004.06 1004.30 1004.46 1004.58 1005.06 1005.70 1006.30 1006.82 1008.18 1009.30 1010.22 1011.14 1011.26 1011.62 1012.38 1013.02 1013.42 1013.94 1014.54 1015.02 1015.46 1015.86 1015.94 1015.94 1016.10 1016.42 1016.82 1016.90 1016.74 1016.70 1017.06 1017.22 1017.22 1017.78 1019.10 1019.94 1020.38 1019.94 1020.06 1019.94 1020.14 1020.58 1020.46 1020.22 1019.94 1021.06 1021.62 1021.78 1021.98 1022.22 1022.46 1022.54 1022.46 1022.42 1022.46 1022.34 1022.30 1022.06 1022.30 1022.46 1022.42 1022.54 1022.54 1022.46 1022.34 1022.26
1001.98 1001.78 1001.78 1001.98 1002.54 1002.98 1003.30 1003.82 1004.10 1004.42 1004.62 1004.86 1005.02 1005.50 1006.38 1007.74 1008.74 1009.38 1009.98 1010.58 1011.22 1011.70 1012.26 1012.86 1013.42 1013.98 1014.54 1015.06 1015.82 1016.10 1015.90 1015.94 1016.14 1016.30 1016.66 1016.94 1016.98 1016.78 1016.50 1016.66 1017.50 1018.50 1019.58 1020.34 1020.62 1020.06 1019.70 1019.90 1019.98 1020.18 1020.06 1020.10 1020.22 1020.34 1021.02 1021.46 1021.66 1021.86 1022.18 1022.22 1022.30 1022.34 1022.46 1022.26 1022.10 1021.98 1021.90 1021.74 1021.66 1021.94 1021.90 1021.82 1021.78 1021.86
1001.54 1001.54 1001.54 1001.90 1002.58 1003.02 1003.30 1003.82 1004.22 1004.58 1004.90 1005.02 1005.30 1006.26 1007.26 1008.06 1008.82 1009.42 1010.18 1010.70 1011.18 1011.42 1011.98 1012.54 1013.30 1013.98 1014.50 1015.26 1015.70 1016.02 1016.22 1016.38 1016.34 1016.50 1016.82 1016.98 1017.02 1017.30 1017.46 1017.54 1017.86 1018.58 1019.46 1020.10 1020.30 1019.98 1019.74 1019.98 1020.26 1019.94 1019.90 1019.90 1020.06 1020.42 1020.74 1020.54 1021.10 1021.70 1021.78 1021.86 1022.10 1022.18 1022.22 1022.18 1022.10 1021.90 1021.82 1021.74 1021.58 1021.62 1021.34 1021.14 1021.26 1021.38
1001.10 1001.18 1001.30 1002.14 1002.78 1003.14 1003.62 1004.14 1004.54 1004.86 1005.02 1005.42 1006.26 1006.86 1007.66 1008.22 1008.70 1009.38 1010.10 1010.38 1010.74 1011.10 1011.74 1012.46 1013.26 1013.94 1014.46 1014.78 1015.38 1015.82 1016.06 1016.18 1016.26 1016.66 1017.06 1017.22 1017.50 1017.86 1018.22 1018.62 1018.90 1019.26 1019.66 1019.98 1020.10 1020.06 1020.02 1020.26 1020.62 1020.78 1020.46 1020.18 1020.02 1020.02 1020.02 1020.42 1021.02 1021.26 1021.54 1021.78 1021.90 1021.94 1022.06 1022.10 1021.94 1021.78 1021.66 1021.58 1021.42 1021.18 1021.02 1020.78 1020.66 1020.74
1000.74 1000.90 1001.78 1002.50 1002.94 1003.42 1003.94 1004.30 1004.82 1005.22 1005.58 1006.02 1006.58 1007.22 1007.70 1008.06 1008.58 1009.14 1009.62 1010.06 1010.46 1010.86 1011.66 1012.38 1013.30 1014.10 1014.62 1014.74 1015.26 1015.82 1015.86 1015.94 1016.26 1016.66 1017.22 1017.66 1018.02 1018.38 1018.78 1019.22 1019.66 1020.02 1020.14 1020.14 1020.18 1020.30 1020.38 1020.42 1020.62 1020.82 1020.74 1020.54 1020.34 1020.46 1020.70 1020.42 1020.82 1021.14 1021.90 1022.38 1021.82 1021.78 1022.02 1021.94 1021.86 1021.66 1021.62 1021.58 1021.38 1021.26 1021.06 1020.86 1020.66 1020.62
1001.42 1001.78 1002.50 1002.82 1003.22 1003.74 1004.26 1004.70 1005.10 1005.78 1006.46 1006.66 1006.94 1007.30 1007.54 1007.86 1008.38 1008.86 1009.46 1010.06 1010.22 1010.82 1011.70 1012.50 1013.26 1014.02 1014.66 1015.18 1015.58 1015.86 1015.82 1015.90 1016.42 1016.82 1017.38 1017.78 1018.26 1018.50 1018.86 1019.26 1019.86 1020.18 1020.30 1020.34 1020.42 1020.54 1020.66 1020.82 1020.94 1020.82 1020.66 1020.82 1020.82 1020.82 1020.98 1020.98 1021.10 1021.42 1022.02 1022.10 1022.06 1021.98 1021.82 1021.82 1021.74 1021.62 1021.62 1021.58 1021.46 1021.30 1020.98 1020.78 1020.62 1020.62
1002.46 1002.94 1003.02 1003.22 1003.50 1004.02 1004.54 1004.86 1005.38 1006.10 1006.82 1007.38 1007.78 1007.90 1008.02 1008.22 1008.54 1008.94 1009.14 1009.42 1009.94 1010.66 1011.58 1012.86 1013.94 1014.46 1014.94 1015.18 1015.30 1015.26 1015.58 1016.10 1016.54 1016.74 1017.10 1017.46 1017.90 1018.22 1018.58 1018.98 1019.62 1020.10 1020.50 1020.70 1020.86 1020.90 1020.86 1021.06 1021.14 1021.14 1020.86 1020.90 1021.14 1021.34 1021.38 1021.42 1021.38 1021.46 1021.62 1021.90 1022.14 1022.18 1021.86 1021.82 1021.70 1021.70 1021.70 1021.70 1021.50 1021.14 1020.86 1020.62 1020.34 1020.26
1002.86 1003.34 1003.70 1003.82 1004.18 1004.74 1005.38 1005.94 1006.38 1006.74 1007.02 1007.30 1007.74 1008.18 1008.50 1008.82 1009.18 1009.62 1009.94 1010.26 1010.50 1011.02 1011.86 1013.10 1014.06 1014.58 1014.78 1015.30 1014.94 1015.14 1015.50 1015.86 1016.26 1016.66 1017.06 1017.42 1017.74 1017.94 1018.10 1018.54 1019.30 1019.70 1020.22 1020.58 1020.86 1021.18 1021.26 1021.34 1021.26 1021.30 1021.50 1021.58 1021.54 1021.66 1021.74 1021.66 1021.50 1021.54 1021.74 1021.90 1022.02 1021.86 1021.82 1021.82 1021.82 1021.74 1021.86 1021.82 1021.42 1020.98 1020.82 1020.54 1020.26 1020.02
1003.18 1003.46 1003.78 1004.22 1004.66 1004.98 1005.54 1006.26 1006.70 1007.10 1007.46 1008.06 1008.34 1008.50 1008.86 1009.26 1009.70 1010.06 1010.14 1010.38 1011.14 1011.82 1012.42 1013.06 1013.54 1014.34 1014.58 1014.66 1014.86 1015.14 1015.54 1015.98 1016.38 1016.82 1017.10 1017.38 1017.34 1017.58 1017.74 1018.22 1018.78 1019.26 1019.82 1020.34 1020.74 1021.02 1021.18 1021.46 1021.74 1021.70 1021.70 1021.86 1021.94 1021.90 1021.66 1021.54 1021.54 1021.70 1021.86 1021.90 1021.98 1021.90 1021.74 1021.86 1021.90 1021.98 1021.98 1021.70 1021.34 1021.02 1020.74 1020.50 1020.22 1019.98
1002.74 1003.38 1003.74 1004.10 1004.54 1005.18 1005.54 1006.06 1006.58 1007.02 1007.46 1008.02 1008.70 1009.18 1009.34 1009.50 1009.98 1010.34 1010.50 1010.98 1011.66 1012.14 1012.46 1012.74 1013.14 1013.90 1014.62 1014.74 1014.90 1015.22 1015.66 1016.18 1016.62 1016.98 1017.02 1017.18 1017.22 1017.42 1017.78 1018.22 1018.70 1019.14 1019.54 1020.02 1020.46 1020.74 1021.02 1021.22 1021.38 1021.62 1021.86 1022.10 1022.18 1022.30 1022.14 1021.86 1021.50 1021.50 1021.78 1021.98 1021.98 1021.98 1021.90 1022.02 1022.06 1022.22 1022.14 1021.86 1021.50 1021.10 1020.90 1020.58 1020.18 1020.02
1002.46 1003.14 1003.58 1004.10 1004.54 1005.02 1005.30 1005.70 1006.18 1006.74 1007.38 1008.06 1008.54 1009.18 1009.66 1010.18 1010.46 1010.62 1010.90 1011.38 1011.74 1011.94 1012.26 1012.90 1013.34 1013.94 1014.74 1014.98 1015.14 1015.46 1015.94 1016.26 1016.62 1016.94 1017.10 1017.14 1017.38 1017.74 1018.18 1018.58 1018.94 1019.22 1019.46 1019.94 1020.42 1020.66 1020.78 1020.94 1021.02 1021.26 1021.58 1021.70 1021.94 1022.42 1023.02 1022.98 1022.38 1022.10 1022.10 1022.02 1022.02 1022.10 1022.18 1022.22 1022.34 1022.18 1022.10 1021.70 1021.38 1021.42 1021.14 1020.66 1020.38 1020.22
1002.46 1002.54 1003.18 1003.98 1004.62 1004.98 1005.34 1005.70 1006.14 1006.54 1007.10 1007.78 1008.34 1008.86 1009.54 1010.30 1010.62 1010.82 1011.22 1011.66 1011.74 1011.98 1012.38 1012.70 1013.26 1014.26 1014.94 1014.98 1015.26 1015.62 1016.06 1016.26 1016.58 1016.90 1017.18 1017.42 1017.70 1017.94 1018.26 1018.62 1018.94 1019.26 1019.54 1019.90 1020.30 1020.58 1020.62 1020.70 1020.70 1020.70 1020.86 1021.06 1021.06 1021.34 1022.54 1023.42 1023.34 1023.06 1022.82 1022.58 1022.34 1022.42 1022.42 1022.50 1022.46 1022.18 1021.82 1021.58 1021.54 1021.38 1021.18 1020.98 1020.74 1020.42
1002.78 1003.22 1003.50 1004.06 1004.70 1005.06 1005.46 1006.06 1006.54 1007.06 1007.38 1007.90 1008.58 1008.94 1009.18 1009.94 1010.86 1011.50 1011.82 1011.90 1012.14 1012.42 1012.58 1012.54 1013.46 1014.42 1014.78 1014.82 1015.26 1015.74 1016.14 1016.30 1016.62 1016.98 1017.30 1017.58 1017.74 1017.98 1018.38 1018.86 1019.10 1019.34 1019.66 1020.14 1020.38 1020.66 1020.62 1020.66 1020.62 1020.26 1019.98 1019.86 1019.82 1020.26 1021.54 1023.02 1023.46 1023.62 1023.26 1023.10 1022.86 1022.66 1022.86 1022.78 1022.46 1022.06 1021.78 1021.74 1021.58 1021.34 1021.34 1021.30 1020.94 1020.62
1003.10 1003.66 1004.14 1004.62 1004.86 1005.30 1005.82 1006.38 1006.90 1007.42 1007.94 1008.42 1008.78 1009.34 1009.94 1010.54 1011.30 1011.70 1012.02 1011.86 1012.18 1012.74 1013.02 1013.38 1014.22 1014.62 1014.70 1014.94 1015.38 1015.98 1016.30 1016.58 1016.78 1017.06 1017.38 1017.50 1017.62 1018.02 1018.50 1018.98 1019.34 1019.70 1020.10 1020.42 1020.54 1020.70 1020.74 1020.70 1020.58 1020.50 1020.14 1019.74 1019.54 1020.26 1021.34 1021.98 1022.62 1023.58 1023.74 1023.46 1023.26 1023.26 1023.02 1022.74 1022.42 1022.14 1022.06 1021.82 1021.62 1021.54 1021.50 1021.30 1020.98 1020.78
1003.90 1004.06 1004.38 1004.70 1005.14 1005.50 1006.10 1006.66 1007.02 1007.58 1008.18 1008.58 1008.90 1009.34 1010.14 1011.10 1011.34 1011.38 1011.58 1011.86 1012.58 1012.98 1013.46 1013.86 1014.26 1014.50 1014.90 1015.46 1015.86 1016.14 1016.34 1016.50 1016.70 1016.94 1017.10 1017.34 1017.74 1018.30 1018.82 1019.22 1019.58 1020.02 1020.38 1020.70 1020.74 1020.74 1020.78 1020.82 1020.90 1020.90 1020.86 1020.86 1021.10 1021.58 1021.74 1021.90 1021.94 1022.58 1023.54 1023.70 1023.62 1023.50 1023.10 1022.98 1022.82 1022.54 1022.30 1022.02 1021.82 1021.66 1021.42 1021.06 1020.86 1020.74
1005.02 1004.94 1005.18 1005.42 1005.82 1006.26 1006.66 1006.94 1007.38 1007.86 1008.34 1008.74 1009.14 1009.78 1010.18 1010.70 1010.86 1011.14 1011.82 1012.54 1013.14 1013.50 1013.70 1014.02 1014.30 1014.90 1015.58 1016.02 1016.26 1016.38 1016.54 1016.70 1016.82 1017.10 1017.42 1017.82 1018.22 1018.54 1018.94 1019.38 1019.70 1020.06 1020.26 1020.46 1020.50 1020.62 1020.90 1021.30 1021.58 1021.70 1021.86 1022.14 1022.54 1022.62 1022.46 1022.38 1022.50 1022.62 1022.90 1023.54 1023.74 1023.70 1023.66 1023.58 1023.38 1023.14 1022.70 1022.38 1022.14 1021.78 1021.34 1021.06 1020.86 1020.62
1005.86 1005.94 1006.14 1006.30 1006.46 1006.70 1006.98 1007.34 1007.70 1007.94 1008.34 1008.90 1009.46 1010.14 1010.66 1010.86 1011.18 1012.02 1012.66 1013.02 1013.22 1013.54 1013.98 1014.50 1015.14 1015.74 1016.34 1016.58 1016.58 1016.50 1016.62 1016.90 1017.26 1017.70 1018.06 1018.30 1018.66 1019.02 1019.54 1019.82 1019.98 1020.10 1020.34 1020.66 1020.82 1021.06 1021.54 1022.02 1022.70 1023.06 1022.90 1022.58 1022.78 1022.98 1023.02 1022.38 1021.90 1022.02 1022.18 1022.94 1023.62 1023.66 1023.78 1023.94 1023.70 1023.50 1023.22 1022.86 1022.30 1022.02 1021.78 1021.66 1021.58 1021.14
1006.50 1006.62 1006.78 1006.98 1007.14 1007.42 1007.62 1007.82 1008.10 1008.22 1008.78 1009.22 1009.50 1010.06 1010.98 1011.78 1012.38 1012.70 1013.06 1013.38 1013.58 1013.94 1014.54 1015.26 1015.86 1016.30 1016.50 1016.54 1016.66 1016.86 1017.06 1017.42 1017.82 1018.26 1018.62 1019.06 1019.66 1020.06 1020.06 1019.82 1019.98 1020.18 1020.22 1020.50 1020.90 1021.42 1021.98 1022.38 1022.78 1022.78 1022.58 1022.18 1021.82 1021.46 1021.18 1021.82 1022.14 1022.02 1022.74 1022.58 1023.06 1023.54 1023.66 1023.66 1023.82 1023.74 1023.42 1023.10 1022.90 1022.58 1022.34 1022.06 1021.90 1021.46
1007.26 1007.34 1007.58 1007.74 1007.94 1008.22 1008.46 1008.54 1008.70 1008.98 1009.06 1009.22 1010.02 1011.02 1011.82 1012.30 1012.50 1012.78 1013.14 1013.54 1014.02 1014.54 1015.22 1015.78 1016.10 1016.30 1016.54 1016.78 1017.06 1017.30 1017.58 1017.94 1018.22 1018.54 1018.98 1019.38 1019.62 1019.74 1019.86 1020.10 1020.30 1020.46 1020.70 1021.02 1021.46 1021.82 1022.10 1022.18 1021.98 1021.82 1021.58 1021.50 1021.90 1021.74 1021.82 1022.54 1022.42 1022.42 1022.46 1022.50 1022.82 1022.82 1022.98 1023.34 1023.38 1023.18 1023.10 1023.06 1023.02 1022.82 1022.78 1022.82 1022.62 1022.22
1008.10 1008.14 1008.30 1008.54 1008.78 1009.02 1009.30 1009.30 1009.46 1009.62 1009.86 1010.54 1011.14 1011.62 1011.90 1012.14 1012.50 1012.90 1013.34 1013.94 1014.46 1015.02 1015.50 1015.90 1016.26 1016.50 1016.82 1017.14 1017.38 1017.66 1017.94 1018.26 1018.62 1018.94 1019.18 1019.38 1019.58 1019.90 1020.34 1020.62 1020.70 1020.74 1020.90 1021.22 1021.54 1021.74 1021.82 1021.82 1021.86 1021.62 1021.54 1021.94 1022.06 1021.98 1022.58 1022.74 1022.18 1022.58 1022.70 1023.14 1023.14 1023.02 1022.38 1022.34 1022.58 1022.50 1022.66 1022.82 1022.90 1022.90 1022.78 1022.70 1022.62 1022.50
1008.90 1009.02 1009.22 1009.54 1009.62 1009.66 1009.82 1009.98 1010.06 1010.38 1010.70 1011.02 1011.30 1011.66 1012.06 1012.38 1012.74 1013.26 1013.82 1014.30 1014.82 1015.34 1015.78 1016.14 1016.50 1016.86 1017.22 1017.46 1017.66 1018.02 1018.42 1018.66 1018.86 1019.14 1019.38 1019.74 1020.14 1020.50 1020.70 1020.74 1020.78 1020.94 1021.02 1021.34 1021.54 1021.78 1021.74 1021.78 1021.82 1021.82 1021.82 1022.14 1022.30 1022.50 1022.74 1022.94 1023.06 1022.86 1022.94 1023.18 1023.06 1022.78 1022.34 1022.42 1022.30 1021.66 1021.26 1021.26 1022.26 1022.50 1022.46 1022.38 1022.26 1022.10
Wind_Speed
15 17 19 16 13 12 12 12 10 10 12 12 13 14 14 12 13 11 12 12 11 14 14 11 13 12 11 9 7 8 10 12 12 10 10 10 10 11 14 15 14 13 13 13 13 14 14 14 14 13 13 13 13 12 12 11 10 9 9 9 8 7 7 6 5 6 7 7 8 8 8 9 10 10
14 15 17 18 16 15 13 14 13 10 8 9 11 15 14 13 13 11 12 12 11 10 12 11 11 14 12 10 7 7 8 14 11 9 10 10 10 13 13 13 13 13 13 13 13 13 13 14 14 13 14 13 12 12 11 10 10 9 9 8 7 7 7 6 6 6 6 7 7 8 9 10 10 11
15 15 18 19 18 18 16 14 13 13 11 10 11 12 17 14 14 13 11 12 10 11 12 12 12 14 14 11 9 7 8 11 8 9 9 10 15 15 11 12 13 13 13 13 13 13 13 13 13 13 13 13 12 12 11 11 10 10 9 8 7 7 7 6 6 6 6 7 7 9 9 10 11 11
15 17 18 18 17 17 16 15 13 13 12 10 9 8 12 15 14 12 11 12 11 12 11 12 12 15 13 12 12 10 9 7 8 9 10 13 15 10 9 11 12 12 13 13 13 13 13 13 13 13 12 12 12 11 11 11 11 10 9 9 8 7 6 6 6 6 6 7 8 9 10 10 11 11
15 16 17 18 17 17 16 17 16 15 13 12 9 10 11 15 14 15 12 12 13 8 9 10 11 13 14 11 13 13 11 10 9 11 12 12 9 9 9 8 10 12 13 13 13 13 13 13 12 12 12 12 11 11 11 11 10 10 9 9 8 7 6 6 6 6 6 7 8 9 10 10 11 11
16 15 18 20 19 20 21 17 18 16 14 12 13 11 10 14 15 15 14 14 14 8 8 9 10 11 13 12 12 13 13 12 11 12 11 9 9 9 9 8 7 11 13 13 13 13 13 13 12 12 12 12 11 11 11 11 10 10 9 8 7 7 6 6 6 6 7 7 8 9 10 10 11 11
20 18 17 18 18 14 15 18 16 15 14 13 12 12 11 14 14 13 16 14 14 11 11 11 11 11 11 11 14 13 12 12 12 13 11 10 8 8 9 8 7 10 13 13 13 13 13 13 12 12 12 11 11 10 10 10 9 8 7 7 6 6 5 4 5 5 6 7 8 9 10 10 11 12
21 21 19 18 18 17 17 19 18 19 17 15 13 15 15 16 10 13 13 15 13 12 13 13 11 12 12 11 13 13 12 13 12 11 10 9 9 9 8 9 8 9 12 13 13 13 12 12 12 12 11 12 11 11 10 10 9 8 7 6 5 5 4 4 3 5 6 7 8 9 10 10 11 12
20 21 21 19 19 18 18 15 15 17 19 17 15 13 10 12 14 11 13 14 14 11 13 12 11 11 10 11 13 14 14 12 11 10 10 9 9 9 8 8 8 11 11 11 12 12 12 12 12 12 11 11 11 10 10 9 8 7 6 5 5 4 4 3 3 4 5 6 7 9 10 11 12 13
19 19 21 20 19 20 19 17 14 14 19 20 20 17 15 13 12 12 14 10 15 15 12 13 12 11 12 12 11 14 14 14 12 11 10 9 9 9 9 8 8 7 7 7 7 8 10 11 12 12 11 11 10 10 10 9 8 7 6 5 4 4 3 3 3 4 5 5 6 7 9 11 12 13
20 20 20 21 20 20 20 20 19 18 20 21 20 15 12 12 14 11 12 16 17 13 13 12 13 13 11 13 14 13 13 13 13 14 13 10 8 8 9 10 8 7 7 7 6 7 8 11 10 11 12 11 11 10 10 9 8 6 5 4 3 3 2 3 3 5 5 6 6 7 8 10 13 13
20 20 21 21 21 20 20 19 18 16 13 16 18 13 14 15 18 11 11 14 14 15 14 12 12 12 13 10 9 12 14 13 10 10 12 13 12 10 9 9 10 9 8 8 7 8 10 8 10 11 10 11 10 10 10 9 8 6 5 4 3 2 2 2 4 5 6 7 8 8 9 10 11 13
21 20 20 20 21 20 19 19 17 17 15 15 18 13 13 16 16 10 9 7 12 13 14 11 11 12 12 12 14 14 14 15 16 14 11 9 10 10 9 8 8 8 9 9 8 8 8 8 8 8 8 9 11 12 10 9 9 8 5 3 3 1 1 2 4 5 6 7 8 8 9 10 11 11
21 21 20 18 22 21 19 17 18 20 20 16 14 13 12 15 14 11 12 11 11 14 13 13 13 13 13 14 15 15 15 14 12 14 14 12 12 11 9 7 7 9 9 9 9 8 8 8 8 8 9 9 10 7 10 6 7 8 6 4 3 1 1 3 4 5 6 7 8 9 9 10 11 11
20 20 21 20 20 18 19 15 18 20 21 23 23 18 19 16 14 12 13 12 13 13 14 12 13 13 14 14 14 14 14 14 15 15 14 13 13 13 13 11 7 8 10 9 8 7 8 8 8 8 7 9 7 9 6 12 11 8 6 4 3 1 2 3 4 5 7 7 8 9 10 11 12 12
18 19 19 18 17 18 20 20 15 18 21 20 21 22 21 18 18 14 11 12 14 15 14 13 14 13 13 14 14 12 13 13 13 13 13 13 14 13 12 10 11 10 11 10 8 7 8 8 7 6 6 6 6 4 11 10 10 8 6 4 2 1 2 3 5 6 6 7 8 9 10 11 12 12
19 18 17 17 17 16 19 17 21 16 17 18 19 21 26 24 18 16 16 12 10 11 13 13 13 14 13 13 12 14 16 14 15 15 14 13 13 11 11 9 10 12 10 8 7 7 8 9 8 6 6 6 6 8 10 11 9 8 6 4 2 2 2 4 5 6 6 7 8 9 10 11 11 12
18 20 18 18 17 18 17 19 21 21 20 14 14 14 11 11 16 15 15 14 13 10 9 10 13 12 12 13 15 14 13 16 15 15 14 14 13 11 8 9 10 9 7 8 8 6 8 9 8 7 6 7 6 6 12 11 9 7 6 4 3 2 3 4 5 6 6 6 8 9 10 11 11 13
18 19 19 19 18 18 19 17 19 21 20 15 12 12 12 13 14 12 9 9 8 7 6 11 12 10 7 8 11 11 13 12 9 9 10 11 10 12 12 11 9 9 9 9 8 7 8 8 7 7 6 7 7 8 10 11 9 7 7 5 5 4 5 6 6 6 6 7 8 9 10 10 12 13
18 18 19 20 20 19 19 19 19 19 17 17 14 12 8 6 7 6 6 8 9 3 4 5 6 7 7 11 11 11 11 10 12 14 12 12 11 11 9 8 7 8 9 9 8 7 6 7 7 6 6 7 7 8 7 11 9 9 8 8 7 7 6 7 7 7 7 7 8 8 9 10 12 15
19 19 20 19 18 19 20 16 17 17 17 17 14 15 13 8 6 6 6 11 15 15 16 17 17 17 18 18 18 18 18 14 16 14 13 12 12 11 10 9 9 9 10 10 8 6 6 7 7 6 6 7 6 7 7 8 10 10 11 10 10 9 9 8 9 9 8 8 8 8 8 10 11 16
18 21 24 21 21 20 20 15 19 18 17 17 15 14 13 11 9 7 7 7 9 17 19 18 18 18 18 19 19 19 19 20 17 15 15 13 10 8 8 9 9 8 9 9 8 6 6 7 6 6 6 5 6 6 6 7 10 13 13 15 14 13 11 11 10 10 10 9 8 8 8 9 11 11
18 18 20 22 20 19 14 18 20 21 19 16 14 15 15 13 12 10 11 11 11 8 10 11 13 12 14 13 12 13 18 16 10 6 11 12 11 11 9 9 10 8 7 9 10 8 7 7 7 7 6 6 6 6 6 6 6 6 6 9 11 13 13 14 13 12 12 10 9 9 8 8 9 8
17 18 19 16 19 21 10 19 20 22 20 15 14 14 14 14 12 11 10 9 12 11 11 11 10 11 10 10 11 11 11 9 7 8 10 11 10 9 10 10 9 8 7 9 11 7 6 7 7 8 6 5 6 7 6 6 6 5 3 3 2 14 16 15 14 16 12 12 13 11 9 8 6 7
16 17 17 14 16 19 17 20 21 20 19 15 14 14 13 13 14 14 10 14 16 14 12 11 11 11 11 10 11 9 9 9 9 10 8 6 7 9 10 11 9 6 8 8 7 5 7 7 6 7 6 4 2 6 7 5 5 4 3 3 3 2 3 4 5 3 12 16 14 10 11 9 6 6
16 16 12 10 10 16 18 19 20 19 18 16 12 14 15 20 22 15 13 13 13 13 12 13 11 11 12 12 10 9 9 9 10 10 9 5 4 4 6 7 8 9 8 7 2 4 6 7 6 7 5 5 4 4 5 6 5 4 2 3 2 3 3 4 4 4 5 6 3 3 7 10 9 10
11 10 11 8 15 16 17 17 17 17 17 15 10 20 22 22 22 18 12 11 12 12 13 13 12 10 10 10 11 8 7 7 6 7 9 9 11 11 11 9 8 9 10 10 5 4 4 5 4 4 5 4 3 4 4 4 5 4 3 2 2 2 2 3 4 4 5 5 5 6 10 11 12 13
12 10 11 9 16 16 16 16 15 15 15 11 20 22 23 24 20 13 12 11 12 12 12 13 12 10 10 11 11 10 11 10 11 11 11 11 12 12 11 12 11 11 11 9 6 4 4 6 4 2 2 3 3 3 2 2 0 2 1 1 2 2 2 3 4 4 4 5 6 6 7 7 5 4
9 8 15 18 17 16 17 18 16 13 16 23 23 24 25 21 12 13 12 12 12 12 12 11 12 11 9 9 9 10 11 12 12 12 11 11 12 12 12 12 11 9 6 6 6 5 5 4 5 4 3 2 1 1 1 1 1 1 2 3 3 2 3 3 4 5 5 5 6 7 7 7 6 6
18 18 17 19 21 19 16 13 10 8 11 19 23 25 22 12 13 13 13 12 14 14 12 11 11 11 10 9 10 11 12 12 11 11 11 11 11 11 11 11 9 8 8 7 6 6 6 5 4 3 3 3 1 2 1 1 2 1 1 2 3 3 2 3 5 5 5 6 7 7 6 6 6 6
11 14 13 12 14 13 15 15 16 17 18 15 13 11 9 9 9 11 13 15 16 15 12 11 11 10 9 11 12 12 12 12 10 10 10 11 10 10 10 11 10 9 7 7 6 6 5 5 4 3 2 3 3 2 2 0 1 1 1 0 2 3 3 4 4 4 6 7 7 7 6 6 6 4
13 13 15 16 13 13 13 11 11 10 10 11 11 10 9 9 8 10 14 13 11 12 13 13 12 11 12 10 10 11 11 12 11 10 10 10 11 10 10 10 10 9 8 7 7 6 6 5 4 4 3 2 2 3 1 1 2 1 1 1 2 3 3 4 4 5 7 8 7 6 6 6 7 6
12 12 13 13 14 12 12 12 12 10 10 7 8 12 11 10 11 11 9 12 13 14 14 15 14 12 9 11 11 11 12 11 10 9 10 10 10 10 9 10 9 9 9 7 6 5 5 5 5 4 4 3 2 2 1 1 2 1 1 2 3 3 3 4 4 6 8 8 7 7 7 7 7 7
12 11 12 13 14 14 11 12 14 12 11 11 10 8 9 8 8 10 11 12 13 12 13 13 13 12 9 10 11 11 12 11 10 10 10 10 9 10 10 10 9 8 8 7 6 6 5 5 4 4 4 3 3 2 2 3 2 1 1 2 3 3 3 4 5 6 6 7 8 8 8 8 7 7
12 13 13 12 9 9 10 13 14 12 12 10 11 10 9 8 9 10 11 12 12 13 13 12 12 11 9 10 10 11 10 11 11 10 8 9 9 9 9 9 9 8 8 7 6 5 5 4 4 5 4 4 4 5 6 6 3 3 3 3 3 3 4 4 6 6 6 6 6 7 8 8 8 7
10 11 11 11 9 8 9 9 8 10 12 11 12 12 12 10 8 10 12 11 11 13 13 13 12 11 10 10 10 10 11 11 11 10 9 9 9 9 9 9 9 9 8 7 6 5 4 4 3 4 5 5 5 4 4 5 5 4 4 4 4 4 4 5 6 6 6 5 6 6 7 8 8 9
10 8 9 11 9 9 10 9 10 12 13 11 10 8 11 12 10 10 10 13 11 11 11 12 11 10 9 10 10 10 10 10 11 10 10 9 9 10 10 9 8 8 8 7 6 5 3 3 2 2 3 4 4 2 4 4 4 2 4 4 4 4 5 6 6 5 5 6 6 6 7 8 8 9
9 8 9 10 10 10 10 11 11 10 10 9 12 11 11 11 11 11 10 11 12 10 10 10 10 10 9 10 11 11 9 9 10 10 10 10 10 9 9 9 8 7 7 6 5 4 3 3 2 2 1 1 0 2 3 4 5 5 1 3 4 5 5 5 5 5 6 6 6 6 7 7 7 8
7 9 9 9 9 11 11 11 10 12 12 10 10 13 14 12 11 12 9 10 11 10 9 11 10 10 11 9 9 10 10 10 10 10 10 9 9 10 9 9 8 7 7 6 5 5 4 4 3 4 4 4 4 4 3 1 1 4 7 2 4 4 5 5 5 5 6 6 7 7 6 6 8 8
7 8 8 10 11 10 9 10 11 11 14 13 13 11 12 13 12 12 11 10 9 9 9 9 11 10 8 7 8 9 9 9 11 10 10 9 9 9 9 8 8 7 6 6 6 5 5 5 4 4 5 4 4 3 2 1 2 0 2 5 1 2 5 5 5 6 6 6 7 8 8 8 8 9
7 8 7 7 8 8 9 9 11 11 12 13 13 12 11 11 13 11 10 11 10 10 10 10 9 9 8 7 8 9 10 10 10 10 9 9 9 8 9 9 8 7 7 6 6 6 6 5 5 2 2 1 3 3 4 4 4 3 1 4 4 3 4 4 4 5 6 7 6 7 7 8 9 9
8 8 8 6 7 8 9 11 11 10 10 10 11 14 12 10 11 15 13 12 12 12 11 10 9 8 8 8 8 8 9 10 10 10 9 9 9 7 6 6 7 6 6 6 6 6 6 6 5 6 5 4 1 1 1 3 1 2 2 0 5 9 9 8 6 7 6 3 4 6 6 7 8 8
8 8 7 6 7 7 8 10 11 11 8 8 10 11 10 10 11 12 10 11 11 10 10 9 8 8 8 8 8 8 9 9 9 9 10 9 9 8 7 6 6 6 6 7 6 6 5 3 2 1 1 2 2 1 3 2 0 1 0 1 2 2 6 13 11 14 15 14 9 5 2 6 7 9
10 10 8 7 7 7 7 9 12 12 13 13 12 12 8 9 10 11 11 10 10 9 9 9 8 8 8 8 8 8 8 9 9 9 9 8 8 8 8 7 6 6 7 6 6 5 4 3 2 1 3 3 3 3 3 1 1 3 2 3 2 2 4 2 8 14 14 11 12 14 12 10 9 11
10 10 11 9 8 7 7 7 7 10 11 11 10 8 8 9 10 10 9 9 9 9 8 8 8 8 8 8 8 9 8 9 9 9 9 8 8 8 7 7 7 6 6 6 6 5 4 4 3 2 3 3 2 2 1 2 2 1 1 1 1 2 2 2 4 4 3 2 13 16 14 14 14 14
Wind_Direction
218 215 211 215 213 216 217 223 230 233 237 242 239 231 225 227 237 216 219 221 219 196 195 192 200 193 185 188 168 174 167 143 159 153 142 141 138 130 124 122 123 122 121 121 120 120 120 122 125 128 129 128 125 121 117 115 115 115 110 102 94 83 69 54 45 39 33 26 22 15 4 360 359 355
224 222 219 216 214 211 214 216 218 227 233 238 250 240 226 225 230 235 230 218 210 213 168 183 196 199 185 180 156 155 145 149 173 152 145 139 125 119 116 119 120 121 122 121 121 123 124 125 127 127 126 125 120 117 114 110 107 102 98 97 91 85 71 56 42 37 29 20 12 10 359 357 356 353
222 221 221 218 219 213 212 213 213 221 226 228 230 246 240 220 223 229 235 239 201 202 184 204 159 166 170 161 146 139 145 157 171 142 137 123 115 117 109 116 120 122 122 122 124 126 125 125 125 124 123 123 121 120 119 113 106 99 94 90 88 81 72 59 42 29 23 13 6 4 357 356 355 352
235 229 226 220 217 215 215 209 209 212 219 221 229 242 254 234 219 225 233 234 230 187 181 196 158 157 154 148 141 143 136 130 135 139 121 119 125 124 118 108 118 122 124 126 127 125 124 125 124 123 123 121 119 117 114 112 107 101 94 88 81 76 72 63 44 25 15 8 2 1 356 356 353 349
240 235 232 231 228 219 216 213 209 211 212 214 219 229 238 240 223 222 217 227 232 198 200 200 150 154 146 150 151 143 137 144 143 122 125 138 141 134 131 123 118 124 124 126 126 124 124 125 125 124 122 119 116 115 113 109 105 101 95 90 83 74 67 55 43 25 10 3 1 356 355 354 350 345
240 237 239 236 234 226 223 217 213 209 207 208 217 229 242 248 232 219 221 217 228 184 181 186 152 150 160 148 157 143 146 150 145 137 142 149 145 139 137 137 128 127 126 126 125 123 123 124 124 122 121 120 117 116 114 110 107 104 100 93 87 81 67 49 36 20 7 358 357 354 352 351 346 340
238 240 238 237 233 232 231 223 216 205 203 206 209 221 232 239 230 227 223 221 219 170 174 166 159 161 166 155 155 152 150 147 144 145 152 153 146 142 142 134 130 131 128 126 125 123 123 126 126 125 122 121 118 117 116 113 110 107 104 102 96 85 67 54 29 16 1 355 354 351 350 347 340 336
242 238 241 239 234 228 227 227 221 216 204 202 204 214 217 231 214 220 218 225 230 186 183 183 172 165 155 154 150 149 148 148 150 150 150 150 145 141 134 128 130 131 126 127 127 126 122 127 128 126 126 125 125 126 125 121 118 117 116 113 102 82 76 39 22 359 357 352 350 347 347 342 337 334
249 242 238 241 240 233 227 222 222 223 210 205 208 208 206 225 219 209 211 211 218 178 194 175 166 155 157 147 146 149 147 147 145 145 147 146 140 134 125 114 109 113 113 115 121 125 129 131 131 130 131 131 131 131 129 127 125 123 122 114 98 84 59 37 359 344 340 340 343 344 343 341 335 334
245 244 241 240 238 237 232 223 216 223 223 213 208 202 205 222 226 214 209 201 221 190 176 165 150 160 150 145 153 160 156 152 151 151 148 147 143 133 125 126 139 147 143 142 127 125 132 134 132 135 136 136 134 133 131 132 130 126 122 110 95 77 53 13 345 338 327 328 331 333 339 339 335 333
244 244 242 239 238 238 235 232 224 218 222 220 210 196 193 208 230 215 212 209 213 189 171 167 159 155 156 153 154 164 161 159 159 156 155 155 154 152 145 142 148 151 143 125 129 152 147 148 149 140 142 144 144 138 135 136 137 134 126 118 98 77 39 350 345 334 331 324 325 333 332 335 334 330
239 241 242 240 237 237 237 233 222 211 220 218 212 199 194 205 218 211 212 218 208 199 180 169 165 159 153 153 151 154 159 158 164 168 162 163 163 162 155 156 156 156 149 149 141 120 128 140 126 145 151 154 152 148 143 143 140 137 132 119 111 85 6 348 333 329 329 331 334 338 334 331 327 326
236 238 239 238 237 237 239 230 222 218 205 218 218 195 188 201 219 203 199 223 213 190 181 166 161 157 161 162 158 165 173 177 177 171 169 154 151 149 149 157 162 159 160 162 159 163 168 164 168 178 181 169 168 172 193 149 148 140 135 129 116 76 344 328 324 326 330 332 335 337 334 329 323 319
235 236 237 237 236 240 240 227 206 209 212 220 230 197 190 199 213 200 197 200 197 185 181 167 162 163 167 168 170 173 181 177 164 163 168 160 157 149 150 149 165 169 170 165 167 171 179 180 181 195 196 157 189 180 202 167 132 130 135 136 123 128 300 309 319 324 326 332 335 336 330 324 318 314
235 232 233 236 231 230 238 229 208 202 206 207 217 217 202 191 194 200 195 194 193 198 196 164 166 169 170 174 175 178 174 174 173 170 169 160 156 164 160 166 163 186 176 170 170 175 182 196 193 198 203 169 187 212 134 116 122 133 137 138 147 209 279 306 317 322 324 330 333 329 323 318 316 314
237 233 232 232 232 229 229 232 207 203 202 202 204 201 207 200 195 200 198 192 192 191 192 169 177 176 176 170 175 172 171 173 169 169 171 168 167 166 173 168 174 171 177 170 173 172 174 207 218 200 204 172 194 100 111 121 124 139 138 135 150 221 282 301 310 314 321 326 326 322 317 314 312 308
236 233 231 232 228 229 225 227 228 209 202 201 202 204 195 197 192 200 210 211 192 178 180 165 174 182 168 167 177 176 178 170 168 169 173 173 173 174 174 172 155 153 170 164 173 176 174 195 211 207 189 193 147 131 135 133 135 134 147 130 167 235 275 292 300 304 315 319 317 317 311 308 306 304
245 233 232 230 227 227 223 222 224 223 215 193 194 201 204 195 190 187 190 204 202 198 190 162 174 177 164 169 178 178 166 167 171 171 173 163 161 160 151 128 121 136 169 176 172 190 176 191 200 208 183 190 176 174 130 139 140 141 138 153 187 219 255 276 286 294 306 309 311 308 305 305 304 302
250 246 234 233 232 228 223 221 219 219 216 200 182 193 190 199 197 198 191 191 193 197 205 197 190 161 154 132 136 153 166 174 160 152 117 119 102 95 91 84 112 149 179 189 186 199 171 184 199 206 175 174 185 131 139 142 144 146 155 174 191 219 245 262 276 283 288 296 297 300 302 303 302 301
241 247 243 233 232 231 227 221 208 215 215 206 177 176 165 109 81 63 34 68 66 100 128 132 91 110 111 125 139 131 124 106 104 96 99 103 114 123 127 130 147 160 184 203 198 204 166 172 202 190 170 178 191 157 159 147 158 166 179 186 200 215 236 247 263 268 270 275 283 291 299 301 302 299
240 237 239 235 232 230 229 214 184 190 196 205 176 170 150 133 107 94 65 62 81 86 84 88 98 106 110 114 119 121 128 137 133 131 132 146 149 145 144 149 158 169 173 195 207 212 175 175 199 173 176 189 187 176 166 158 170 182 192 197 198 208 219 239 245 253 257 260 269 284 290 296 300 297
235 236 239 243 234 231 229 187 169 163 173 196 175 150 138 137 127 124 119 100 80 83 84 87 93 103 110 113 118 124 130 138 145 151 161 155 146 143 150 152 167 154 171 183 193 197 189 160 192 182 170 175 199 187 179 163 167 189 198 204 202 202 218 230 241 247 247 244 257 271 276 281 295 296
231 234 236 232 235 236 223 159 168 165 176 193 163 153 150 150 151 153 145 130 125 116 102 97 97 91 99 103 110 119 126 132 132 125 130 144 155 157 154 156 153 154 179 166 180 199 169 169 183 186 166 192 186 186 168 184 197 193 197 191 200 197 213 222 235 233 234 246 239 241 253 261 286 311
224 229 231 221 214 233 193 163 164 171 173 180 157 154 161 157 154 147 137 131 126 116 111 113 111 111 109 104 111 118 124 131 129 128 144 153 161 160 157 164 167 177 157 149 184 206 170 187 172 195 199 198 185 180 182 192 191 203 222 241 267 178 209 221 227 223 230 223 225 229 235 237 262 320
225 222 225 227 197 196 165 168 166 170 174 164 161 160 167 166 138 136 123 129 127 120 118 114 114 115 119 123 128 135 137 137 140 141 152 172 181 167 163 169 175 133 125 145 171 206 169 186 170 180 211 236 162 160 179 204 180 196 205 247 262 273 305 308 328 291 193 212 220 225 219 225 262 280
224 225 223 224 161 155 160 168 170 170 171 158 164 170 140 121 130 134 132 133 129 124 122 121 119 127 131 140 141 142 137 135 131 128 124 114 116 154 164 158 146 139 137 134 238 226 163 174 173 179 186 190 173 186 163 189 174 188 205 236 268 312 303 313 319 308 321 339 300 192 305 284 250 235
216 213 214 180 143 151 154 162 167 169 162 163 131 122 130 135 130 127 133 132 130 127 125 128 129 132 130 128 135 131 113 108 98 100 105 101 92 76 66 70 94 108 124 141 171 181 170 138 162 199 175 182 174 168 210 213 165 171 216 203 268 269 279 313 305 317 325 320 316 301 258 242 224 231
212 194 198 142 143 140 143 142 148 151 152 128 127 132 133 134 134 130 133 134 133 128 125 126 131 132 136 134 135 138 135 132 122 111 105 101 96 92 91 91 94 107 121 139 145 141 137 137 134 102 96 165 195 209 190 136 147 218 252 332 283 247 311 305 305 318 321 323 320 329 331 331 336 281
210 158 122 128 133 129 129 130 128 126 125 133 136 137 138 135 137 140 140 138 134 128 128 125 125 127 134 127 119 124 122 112 105 103 102 98 96 97 96 94 93 93 95 106 113 111 108 116 126 134 145 142 193 122 224 308 101 104 63 317 282 341 314 302 318 326 333 326 325 327 324 326 317 322
106 115 126 124 122 122 123 124 132 118 130 135 138 141 143 143 140 145 141 140 137 129 126 125 125 124 120 116 120 120 119 115 114 116 115 117 115 118 117 112 103 94 89 89 92 95 96 96 96 114 120 114 73 99 132 212 185 158 168 253 331 284 237 319 329 328 328 332 327 320 315 315 312 316
96 109 119 119 116 111 119 116 119 120 123 122 127 133 132 132 134 140 148 146 137 131 123 118 113 107 110 125 130 129 123 119 122 123 123 122 127 129 127 119 112 104 93 85 70 62 83 83 83 81 87 102 114 80 58 59 246 224 212 336 310 308 337 324 323 333 337 329 319 307 313 314 315 314
116 113 105 104 107 109 106 110 114 118 124 130 131 130 127 121 116 109 107 105 111 114 115 114 116 123 132 133 129 122 121 121 123 128 126 128 129 130 129 118 115 116 112 105 101 87 72 67 71 83 64 54 71 105 154 217 261 251 295 326 314 306 324 330 333 334 340 324 313 321 324 322 323 330
116 116 116 117 119 123 120 124 127 125 123 114 121 125 127 125 124 131 138 129 124 125 125 128 132 134 129 127 125 123 119 118 121 127 126 127 128 131 123 117 123 125 122 113 103 94 89 95 76 60 68 75 66 20 293 226 190 212 304 337 322 320 335 348 334 337 329 319 323 322 325 327 325 331
128 130 131 136 136 136 130 132 137 135 129 126 125 121 121 119 120 128 125 120 127 129 129 131 127 124 126 127 126 122 119 119 120 121 124 124 125 124 122 119 115 113 112 113 111 108 109 108 118 119 114 93 75 50 345 319 309 292 359 318 322 323 335 338 339 330 324 320 319 320 325 326 327 338
129 140 140 142 133 130 136 138 141 137 131 130 127 127 124 120 127 130 125 130 132 132 127 120 116 115 123 126 122 119 117 117 119 121 120 121 119 114 115 116 118 118 117 114 111 111 112 119 132 130 128 141 142 113 51 9 338 351 329 319 332 331 331 339 331 323 316 304 320 319 315 319 327 336
132 135 133 133 132 130 127 128 123 131 134 133 133 134 131 132 130 130 131 133 132 128 125 123 120 119 127 126 121 117 117 117 118 120 123 121 119 116 112 110 114 115 115 113 115 118 121 132 165 176 170 177 184 170 122 47 18 341 329 323 332 332 333 331 322 311 310 324 323 316 320 326 325 329
117 122 127 128 128 128 124 116 120 132 133 126 126 126 128 125 125 121 122 122 115 117 120 115 107 119 123 118 110 110 115 121 123 123 117 116 114 112 111 110 111 112 109 109 114 120 135 132 161 206 209 196 196 177 110 128 105 3 335 333 325 334 339 321 311 308 323 321 319 327 332 322 317 325
114 108 112 127 127 126 123 126 125 120 120 117 119 112 110 113 118 120 124 118 112 112 105 99 111 115 110 105 112 119 121 120 120 117 119 120 118 115 113 113 114 111 111 114 113 116 126 119 99 79 349 343 131 115 141 164 157 145 86 326 343 334 314 315 315 323 325 321 325 331 323 310 314 317
102 115 123 123 122 120 123 128 122 125 128 122 119 123 120 121 127 120 113 103 112 102 97 106 111 112 109 109 113 124 129 129 121 120 119 117 113 115 117 117 116 116 120 125 131 131 118 100 86 61 41 44 49 42 30 19 68 109 128 93 1 335 329 331 321 319 319 325 330 323 308 305 300 286
83 87 101 114 118 121 115 116 118 120 124 119 114 114 121 125 124 114 102 108 112 110 100 105 105 102 101 110 119 117 111 109 114 113 111 111 113 115 117 118 119 126 129 133 136 124 102 81 66 58 57 64 60 40 6 14 39 330 157 125 151 23 345 331 317 320 318 330 325 320 325 331 330 333
89 92 90 95 104 107 113 111 116 117 116 114 110 108 107 109 109 109 117 118 112 104 101 98 96 102 112 119 120 119 116 113 108 108 108 109 106 106 108 119 126 130 128 125 111 100 87 78 73 47 331 101 163 207 217 218 190 165 110 143 190 217 202 262 299 310 314 314 321 327 332 335 331 321
83 81 72 64 79 91 108 115 117 111 103 109 112 112 106 103 106 110 108 104 102 99 95 100 108 114 117 112 109 107 106 109 109 107 108 107 106 112 138 138 129 137 131 119 105 95 103 123 155 190 206 211 210 288 61 60 4 73 20 289 161 193 211 220 239 268 280 293 315 331 335 333 333 321
60 67 64 59 75 82 101 107 108 104 91 78 86 101 106 112 112 109 107 105 103 103 105 107 111 113 111 109 106 108 107 105 108 109 111 118 124 127 120 113 111 111 106 102 102 108 118 132 146 159 152 74 51 314 55 42 335 25 232 88 5 322 198 196 214 216 221 230 240 267 342 333 325 325
67 65 63 59 69 77 85 102 108 109 104 105 111 113 101 108 106 105 106 105 108 110 111 109 105 101 101 106 108 104 105 107 110 114 119 118 115 110 112 115 115 114 114 115 119 118 117 110 89 73 74 61 32 28 54 335 350 38 17 36 324 284 303 168 214 214 219 217 217 228 242 244 257 266
61 70 78 78 72 71 72 78 83 103 109 112 109 101 99 97 94 94 90 93 93 100 103 102 101 101 106 110 112 109 107 109 114 115 115 111 107 111 113 117 116 115 111 114 122 122 122 116 110 107 93 79 65 56 44 26 352 353 19 345 295 332 320 5 320 330 304 186 195 217 227 235 243 250